Year,Month,Day,Hour,Minute,Value (Times are PST for windspeed in km/hr)
2017,05,25,00,00,0.00
2017,05,25,00,01,0.00
2017,05,25,00,02,0.00
2017,05,25,00,03,0.00
2017,05,25,00,04,0.00
2017,05,25,00,05,0.00
2017,05,25,00,06,0.00
2017,05,25,00,07,0.00
2017,05,25,00,08,0.00
2017,05,25,00,09,0.00
2017,05,25,00,10,0.00
2017,05,25,00,11,0.00
2017,05,25,00,12,0.00
2017,05,25,00,13,0.00
2017,05,25,00,14,0.00
2017,05,25,00,15,0.00
2017,05,25,00,16,0.00
2017,05,25,00,17,0.00
2017,05,25,00,18,0.00
2017,05,25,00,19,0.00
2017,05,25,00,20,0.00
2017,05,25,00,21,0.00
2017,05,25,00,22,0.00
2017,05,25,00,23,0.00
2017,05,25,00,24,0.00
2017,05,25,00,25,0.00
2017,05,25,00,26,0.00
2017,05,25,00,27,0.00
2017,05,25,00,28,0.00
2017,05,25,00,29,0.00
2017,05,25,00,30,0.00
2017,05,25,00,31,0.00
2017,05,25,00,32,0.00
2017,05,25,00,33,0.00
2017,05,25,00,34,0.00
2017,05,25,00,35,0.00
2017,05,25,00,36,0.00
2017,05,25,00,37,0.00
2017,05,25,00,38,0.00
2017,05,25,00,39,0.00
2017,05,25,00,40,0.00
2017,05,25,00,41,0.10
2017,05,25,00,42,0.00
2017,05,25,00,43,0.00
2017,05,25,00,44,0.00
2017,05,25,00,45,0.00
2017,05,25,00,46,0.00
2017,05,25,00,47,0.00
2017,05,25,00,48,0.00
2017,05,25,00,49,0.00
2017,05,25,00,50,0.00
2017,05,25,00,51,0.00
2017,05,25,00,52,0.00
2017,05,25,00,53,0.00
2017,05,25,00,54,0.00
2017,05,25,00,55,0.00
2017,05,25,00,56,0.00
2017,05,25,00,57,0.00
2017,05,25,00,58,0.00
2017,05,25,00,59,0.00
2017,05,25,01,00,0.00
2017,05,25,01,01,0.00
2017,05,25,01,02,0.00
2017,05,25,01,03,0.00
2017,05,25,01,04,1.30
2017,05,25,01,05,0.00
2017,05,25,01,06,0.00
2017,05,25,01,07,1.20
2017,05,25,01,08,0.00
2017,05,25,01,09,0.00
2017,05,25,01,10,0.00
2017,05,25,01,11,0.00
2017,05,25,01,12,0.00
2017,05,25,01,13,0.00
2017,05,25,01,14,0.00
2017,05,25,01,15,0.00
2017,05,25,01,16,0.00
2017,05,25,01,17,0.00
2017,05,25,01,18,0.00
2017,05,25,01,19,0.00
2017,05,25,01,20,0.00
2017,05,25,01,21,0.00
2017,05,25,01,22,0.00
2017,05,25,01,23,0.00
2017,05,25,01,24,0.00
2017,05,25,01,25,0.00
2017,05,25,01,26,0.00
2017,05,25,01,27,0.00
2017,05,25,01,28,0.00
2017,05,25,01,29,0.00
2017,05,25,01,30,0.00
2017,05,25,01,31,0.00
2017,05,25,01,32,0.00
2017,05,25,01,33,0.00
2017,05,25,01,34,0.00
2017,05,25,01,35,0.00
2017,05,25,01,36,0.00
2017,05,25,01,37,0.00
2017,05,25,01,38,0.00
2017,05,25,01,39,0.00
2017,05,25,01,40,0.00
2017,05,25,01,41,0.00
2017,05,25,01,42,0.00
2017,05,25,01,43,0.00
2017,05,25,01,44,0.00
2017,05,25,01,45,0.00
2017,05,25,01,46,0.00
2017,05,25,01,47,0.00
2017,05,25,01,48,0.00
2017,05,25,01,49,0.00
2017,05,25,01,50,0.00
2017,05,25,01,51,0.00
2017,05,25,01,52,0.00
2017,05,25,01,53,0.00
2017,05,25,01,54,0.00
2017,05,25,01,55,0.00
2017,05,25,01,56,0.00
2017,05,25,01,57,0.00
2017,05,25,01,58,0.00
2017,05,25,01,59,0.00
2017,05,25,02,00,0.00
2017,05,25,02,01,0.00
2017,05,25,02,02,0.00
2017,05,25,02,03,0.00
2017,05,25,02,04,0.00
2017,05,25,02,05,0.00
2017,05,25,02,06,0.00
2017,05,25,02,07,0.00
2017,05,25,02,08,0.00
2017,05,25,02,09,0.00
2017,05,25,02,10,0.00
2017,05,25,02,11,0.00
2017,05,25,02,12,0.00
2017,05,25,02,13,0.00
2017,05,25,02,14,0.00
2017,05,25,02,15,0.00
2017,05,25,02,16,0.00
2017,05,25,02,17,0.00
2017,05,25,02,18,0.00
2017,05,25,02,19,0.00
2017,05,25,02,20,0.00
2017,05,25,02,21,0.00
2017,05,25,02,22,0.00
2017,05,25,02,23,0.00
2017,05,25,02,24,0.00
2017,05,25,02,25,0.00
2017,05,25,02,26,0.00
2017,05,25,02,27,0.00
2017,05,25,02,28,0.00
2017,05,25,02,29,0.00
2017,05,25,02,30,0.00
2017,05,25,02,31,0.00
2017,05,25,02,32,0.00
2017,05,25,02,33,0.00
2017,05,25,02,34,0.00
2017,05,25,02,35,0.00
2017,05,25,02,36,0.00
2017,05,25,02,37,0.00
2017,05,25,02,38,0.00
2017,05,25,02,39,0.00
2017,05,25,02,40,0.00
2017,05,25,02,41,0.00
2017,05,25,02,42,0.00
2017,05,25,02,43,0.00
2017,05,25,02,44,0.00
2017,05,25,02,45,0.00
2017,05,25,02,46,0.00
2017,05,25,02,47,0.00
2017,05,25,02,48,0.00
2017,05,25,02,49,0.00
2017,05,25,02,50,0.00
2017,05,25,02,51,0.00
2017,05,25,02,52,0.00
2017,05,25,02,53,0.00
2017,05,25,02,54,0.00
2017,05,25,02,55,0.00
2017,05,25,02,56,0.00
2017,05,25,02,57,0.00
2017,05,25,02,58,0.00
2017,05,25,02,59,0.00
2017,05,25,03,00,0.00
2017,05,25,03,01,0.00
2017,05,25,03,02,0.00
2017,05,25,03,03,0.00
2017,05,25,03,04,0.00
2017,05,25,03,05,0.00
2017,05,25,03,06,0.20
2017,05,25,03,07,0.00
2017,05,25,03,08,0.00
2017,05,25,03,09,0.00
2017,05,25,03,10,0.00
2017,05,25,03,11,0.00
2017,05,25,03,12,0.00
2017,05,25,03,13,0.00
2017,05,25,03,14,0.00
2017,05,25,03,15,0.00
2017,05,25,03,16,0.00
2017,05,25,03,17,0.00
2017,05,25,03,18,0.00
2017,05,25,03,19,0.00
2017,05,25,03,20,0.00
2017,05,25,03,21,0.00
2017,05,25,03,22,0.00
2017,05,25,03,23,0.00
2017,05,25,03,24,0.00
2017,05,25,03,25,0.00
2017,05,25,03,26,0.00
2017,05,25,03,27,0.00
2017,05,25,03,28,0.00
2017,05,25,03,29,0.00
2017,05,25,03,30,0.00
2017,05,25,03,31,0.00
2017,05,25,03,32,0.00
2017,05,25,03,33,0.00
2017,05,25,03,34,0.00
2017,05,25,03,35,0.00
2017,05,25,03,36,0.00
2017,05,25,03,37,0.00
2017,05,25,03,38,0.00
2017,05,25,03,39,0.00
2017,05,25,03,40,0.00
2017,05,25,03,41,0.00
2017,05,25,03,42,0.00
2017,05,25,03,43,0.00
2017,05,25,03,44,0.00
2017,05,25,03,45,0.00
2017,05,25,03,46,0.00
2017,05,25,03,47,0.00
2017,05,25,03,48,0.00
2017,05,25,03,49,0.00
2017,05,25,03,50,0.00
2017,05,25,03,51,0.00
2017,05,25,03,52,0.00
2017,05,25,03,53,0.00
2017,05,25,03,54,0.00
2017,05,25,03,55,0.00
2017,05,25,03,56,0.00
2017,05,25,03,57,0.00
2017,05,25,03,58,0.00
2017,05,25,03,59,0.00
2017,05,25,04,00,0.00
2017,05,25,04,01,0.00
2017,05,25,04,02,0.00
2017,05,25,04,03,0.00
2017,05,25,04,04,0.00
2017,05,25,04,05,0.00
2017,05,25,04,06,0.00
2017,05,25,04,07,0.00
2017,05,25,04,08,0.00
2017,05,25,04,09,0.00
2017,05,25,04,10,0.00
2017,05,25,04,11,0.00
2017,05,25,04,12,0.00
2017,05,25,04,13,0.00
2017,05,25,04,14,0.00
2017,05,25,04,15,0.00
2017,05,25,04,16,0.00
2017,05,25,04,17,0.00
2017,05,25,04,18,0.00
2017,05,25,04,19,0.00
2017,05,25,04,20,0.00
2017,05,25,04,21,0.00
2017,05,25,04,22,0.00
2017,05,25,04,23,0.00
2017,05,25,04,24,0.00
2017,05,25,04,25,0.00
2017,05,25,04,26,0.00
2017,05,25,04,27,0.00
2017,05,25,04,28,0.00
2017,05,25,04,29,0.00
2017,05,25,04,30,0.00
2017,05,25,04,31,0.00
2017,05,25,04,32,0.00
2017,05,25,04,33,0.00
2017,05,25,04,34,0.00
2017,05,25,04,35,0.00
2017,05,25,04,36,0.00
2017,05,25,04,37,0.00
2017,05,25,04,38,0.00
2017,05,25,04,39,0.00
2017,05,25,04,40,0.00
2017,05,25,04,41,0.00
2017,05,25,04,42,0.00
2017,05,25,04,43,0.00
2017,05,25,04,44,0.00
2017,05,25,04,45,0.00
2017,05,25,04,46,0.00
2017,05,25,04,47,0.00
2017,05,25,04,48,0.00
2017,05,25,04,49,0.00
2017,05,25,04,50,0.00
2017,05,25,04,51,0.00
2017,05,25,04,52,0.00
2017,05,25,04,53,0.00
2017,05,25,04,54,0.00
2017,05,25,04,55,0.00
2017,05,25,04,56,0.00
2017,05,25,04,57,0.00
2017,05,25,04,58,0.00
2017,05,25,04,59,0.00
2017,05,25,05,00,0.00
2017,05,25,05,01,0.00
2017,05,25,05,02,0.00
2017,05,25,05,03,0.00
2017,05,25,05,04,0.00
2017,05,25,05,05,0.00
2017,05,25,05,06,0.00
2017,05,25,05,07,0.00
2017,05,25,05,08,0.00
2017,05,25,05,09,0.00
2017,05,25,05,10,0.00
2017,05,25,05,11,0.00
2017,05,25,05,12,0.00
2017,05,25,05,13,0.00
2017,05,25,05,14,0.00
2017,05,25,05,15,0.00
2017,05,25,05,16,0.00
2017,05,25,05,17,0.00
2017,05,25,05,18,0.00
2017,05,25,05,19,0.00
2017,05,25,05,20,0.00
2017,05,25,05,21,0.00
2017,05,25,05,22,0.00
2017,05,25,05,23,0.00
2017,05,25,05,24,0.00
2017,05,25,05,25,0.00
2017,05,25,05,26,0.00
2017,05,25,05,27,0.00
2017,05,25,05,28,0.00
2017,05,25,05,29,0.00
2017,05,25,05,30,0.00
2017,05,25,05,31,0.00
2017,05,25,05,32,0.00
2017,05,25,05,33,0.00
2017,05,25,05,34,0.00
2017,05,25,05,35,0.00
2017,05,25,05,36,0.00
2017,05,25,05,37,0.00
2017,05,25,05,38,0.00
2017,05,25,05,39,0.00
2017,05,25,05,40,0.00
2017,05,25,05,41,0.00
2017,05,25,05,42,0.00
2017,05,25,05,43,0.00
2017,05,25,05,44,0.00
2017,05,25,05,45,0.00
2017,05,25,05,46,0.00
2017,05,25,05,47,0.00
2017,05,25,05,48,0.00
2017,05,25,05,49,0.00
2017,05,25,05,50,0.00
2017,05,25,05,51,0.00
2017,05,25,05,52,0.00
2017,05,25,05,53,0.00
2017,05,25,05,54,0.00
2017,05,25,05,55,0.00
2017,05,25,05,56,0.00
2017,05,25,05,57,0.00
2017,05,25,05,58,0.00
2017,05,25,05,59,0.00
2017,05,25,06,00,0.00
2017,05,25,06,01,0.00
2017,05,25,06,02,0.00
2017,05,25,06,03,0.00
2017,05,25,06,04,0.00
2017,05,25,06,05,0.00
2017,05,25,06,06,0.00
2017,05,25,06,07,0.00
2017,05,25,06,08,0.00
2017,05,25,06,09,0.00
2017,05,25,06,10,0.00
2017,05,25,06,11,0.00
2017,05,25,06,12,0.00
2017,05,25,06,13,0.00
2017,05,25,06,14,0.00
2017,05,25,06,15,0.00
2017,05,25,06,16,0.00
2017,05,25,06,17,0.00
2017,05,25,06,18,0.00
2017,05,25,06,19,0.00
2017,05,25,06,20,0.00
2017,05,25,06,21,0.00
2017,05,25,06,22,0.00
2017,05,25,06,23,0.00
2017,05,25,06,24,0.00
2017,05,25,06,25,0.00
2017,05,25,06,26,0.00
2017,05,25,06,27,0.00
2017,05,25,06,28,0.00
2017,05,25,06,29,0.00
2017,05,25,06,30,0.00
2017,05,25,06,31,0.00
2017,05,25,06,32,0.00
2017,05,25,06,33,0.00
2017,05,25,06,34,0.00
2017,05,25,06,35,0.00
2017,05,25,06,36,0.00
2017,05,25,06,37,0.00
2017,05,25,06,38,0.00
2017,05,25,06,39,0.00
2017,05,25,06,40,0.00
2017,05,25,06,41,0.00
2017,05,25,06,42,0.00
2017,05,25,06,43,0.00
2017,05,25,06,44,0.00
2017,05,25,06,45,0.00
2017,05,25,06,46,0.00
2017,05,25,06,47,0.00
2017,05,25,06,48,0.00
2017,05,25,06,49,0.00
2017,05,25,06,50,0.00
2017,05,25,06,51,0.00
2017,05,25,06,52,0.00
2017,05,25,06,53,0.00
2017,05,25,06,54,0.00
2017,05,25,06,55,0.00
2017,05,25,06,56,0.00
2017,05,25,06,57,0.00
2017,05,25,06,58,0.00
2017,05,25,06,59,0.00
2017,05,25,07,00,0.00
2017,05,25,07,01,0.00
2017,05,25,07,02,0.00
2017,05,25,07,03,0.00
2017,05,25,07,04,0.00
2017,05,25,07,05,0.00
2017,05,25,07,06,0.00
2017,05,25,07,07,0.00
2017,05,25,07,08,0.00
2017,05,25,07,09,0.00
2017,05,25,07,10,0.00
2017,05,25,07,11,0.00
2017,05,25,07,12,0.00
2017,05,25,07,13,0.00
2017,05,25,07,14,0.00
2017,05,25,07,15,0.00
2017,05,25,07,16,0.00
2017,05,25,07,17,0.00
2017,05,25,07,18,0.00
2017,05,25,07,19,0.00
2017,05,25,07,20,0.00
2017,05,25,07,21,0.00
2017,05,25,07,22,0.00
2017,05,25,07,23,0.00
2017,05,25,07,24,0.00
2017,05,25,07,25,0.00
2017,05,25,07,26,0.00
2017,05,25,07,27,0.00
2017,05,25,07,28,0.00
2017,05,25,07,29,0.00
2017,05,25,07,30,0.00
2017,05,25,07,31,0.00
2017,05,25,07,32,0.00
2017,05,25,07,33,0.00
2017,05,25,07,34,0.00
2017,05,25,07,35,0.00
2017,05,25,07,36,0.00
2017,05,25,07,37,0.00
2017,05,25,07,38,0.00
2017,05,25,07,39,0.00
2017,05,25,07,40,0.00
2017,05,25,07,41,0.00
2017,05,25,07,42,0.00
2017,05,25,07,43,0.00
2017,05,25,07,44,0.00
2017,05,25,07,45,0.00
2017,05,25,07,46,0.00
2017,05,25,07,47,0.00
2017,05,25,07,48,0.00
2017,05,25,07,49,0.00
2017,05,25,07,50,0.00
2017,05,25,07,51,0.00
2017,05,25,07,52,0.00
2017,05,25,07,53,0.00
2017,05,25,07,54,0.00
2017,05,25,07,55,0.00
2017,05,25,07,56,0.00
2017,05,25,07,57,0.00
2017,05,25,07,58,0.10
2017,05,25,07,59,0.00
2017,05,25,08,00,0.00
2017,05,25,08,01,0.00
2017,05,25,08,02,0.00
2017,05,25,08,03,0.00
2017,05,25,08,04,0.00
2017,05,25,08,05,0.00
2017,05,25,08,06,0.00
2017,05,25,08,07,0.00
2017,05,25,08,08,0.00
2017,05,25,08,09,0.00
2017,05,25,08,10,0.00
2017,05,25,08,11,0.00
2017,05,25,08,12,0.00
2017,05,25,08,13,0.00
2017,05,25,08,14,0.00
2017,05,25,08,15,0.00
2017,05,25,08,16,0.00
2017,05,25,08,17,0.00
2017,05,25,08,18,0.00
2017,05,25,08,19,0.00
2017,05,25,08,20,0.00
2017,05,25,08,21,0.00
2017,05,25,08,22,0.00
2017,05,25,08,23,0.00
2017,05,25,08,24,0.00
2017,05,25,08,25,0.00
2017,05,25,08,26,0.00
2017,05,25,08,27,0.00
2017,05,25,08,28,0.00
2017,05,25,08,29,0.00
2017,05,25,08,30,0.00
2017,05,25,08,31,0.00
2017,05,25,08,32,0.00
2017,05,25,08,33,0.00
2017,05,25,08,34,0.00
2017,05,25,08,35,0.00
2017,05,25,08,36,0.00
2017,05,25,08,37,0.00
2017,05,25,08,38,0.00
2017,05,25,08,39,0.00
2017,05,25,08,40,0.00
2017,05,25,08,41,0.00
2017,05,25,08,42,0.00
2017,05,25,08,43,0.00
2017,05,25,08,44,0.00
2017,05,25,08,45,0.00
2017,05,25,08,46,0.00
2017,05,25,08,47,0.00
2017,05,25,08,48,0.00
2017,05,25,08,49,0.00
2017,05,25,08,50,0.00
2017,05,25,08,51,0.00
2017,05,25,08,52,0.00
2017,05,25,08,53,0.00
2017,05,25,08,54,0.00
2017,05,25,08,55,0.00
2017,05,25,08,56,0.00
2017,05,25,08,57,0.00
2017,05,25,08,58,0.00
2017,05,25,08,59,0.00
2017,05,25,09,00,0.00
2017,05,25,09,01,0.00
2017,05,25,09,02,0.00
2017,05,25,09,03,0.00
2017,05,25,09,04,0.00
2017,05,25,09,05,0.00
2017,05,25,09,06,0.00
2017,05,25,09,07,0.00
2017,05,25,09,08,0.00
2017,05,25,09,09,0.00
2017,05,25,09,10,0.00
2017,05,25,09,11,0.00
2017,05,25,09,12,0.00
2017,05,25,09,13,0.00
2017,05,25,09,14,0.00
2017,05,25,09,15,0.00
2017,05,25,09,16,0.00
2017,05,25,09,17,0.00
2017,05,25,09,18,0.00
2017,05,25,09,19,0.00
2017,05,25,09,20,0.00
2017,05,25,09,21,0.00
2017,05,25,09,22,0.00
2017,05,25,09,23,0.00
2017,05,25,09,24,0.00
2017,05,25,09,25,0.00
2017,05,25,09,26,0.00
2017,05,25,09,27,0.00
2017,05,25,09,28,0.00
2017,05,25,09,29,0.00
2017,05,25,09,30,0.00
2017,05,25,09,31,0.00
2017,05,25,09,32,0.00
2017,05,25,09,33,0.00
2017,05,25,09,34,0.00
2017,05,25,09,35,4.60
2017,05,25,09,36,9.60
2017,05,25,09,37,17.50
2017,05,25,09,38,18.60
2017,05,25,09,39,17.80
2017,05,25,09,40,15.80
2017,05,25,09,41,11.30
2017,05,25,09,42,13.00
2017,05,25,09,43,17.20
2017,05,25,09,44,17.50
2017,05,25,09,45,16.90
2017,05,25,09,46,17.90
2017,05,25,09,47,20.60
2017,05,25,09,48,21.70
2017,05,25,09,49,22.20
2017,05,25,09,50,22.80
2017,05,25,09,51,23.20
2017,05,25,09,52,23.40
2017,05,25,09,53,23.50
2017,05,25,09,54,25.30
2017,05,25,09,55,25.00
2017,05,25,09,56,25.10
2017,05,25,09,57,25.70
2017,05,25,09,58,24.80
2017,05,25,09,59,24.30
2017,05,25,10,00,23.50
2017,05,25,10,01,23.30
2017,05,25,10,02,24.80
2017,05,25,10,03,23.90
2017,05,25,10,04,23.00
2017,05,25,10,05,23.90
2017,05,25,10,06,23.20
2017,05,25,10,07,25.10
2017,05,25,10,08,24.50
2017,05,25,10,09,25.70
2017,05,25,10,10,24.20
2017,05,25,10,11,24.50
2017,05,25,10,12,26.50
2017,05,25,10,13,25.30
2017,05,25,10,14,24.20
2017,05,25,10,15,23.80
2017,05,25,10,16,26.10
2017,05,25,10,17,25.40
2017,05,25,10,18,25.20
2017,05,25,10,19,24.70
2017,05,25,10,20,25.10
2017,05,25,10,21,25.70
2017,05,25,10,22,25.80
2017,05,25,10,23,25.70
2017,05,25,10,24,24.60
2017,05,25,10,25,24.50
2017,05,25,10,26,24.20
2017,05,25,10,27,24.90
2017,05,25,10,28,24.90
2017,05,25,10,29,24.90
2017,05,25,10,30,23.60
2017,05,25,10,31,23.30
2017,05,25,10,32,23.30
2017,05,25,10,33,23.80
2017,05,25,10,34,23.30
2017,05,25,10,35,23.60
2017,05,25,10,36,23.50
2017,05,25,10,37,23.60
2017,05,25,10,38,22.50
2017,05,25,10,39,22.60
2017,05,25,10,40,21.60
2017,05,25,10,41,22.20
2017,05,25,10,42,22.80
2017,05,25,10,43,21.70
2017,05,25,10,44,22.80
2017,05,25,10,45,21.80
2017,05,25,10,46,20.90
2017,05,25,10,47,20.40
2017,05,25,10,48,22.00
2017,05,25,10,49,22.00
2017,05,25,10,50,21.80
2017,05,25,10,51,22.80
2017,05,25,10,52,23.60
2017,05,25,10,53,23.60
2017,05,25,10,54,24.50
2017,05,25,10,55,24.80
2017,05,25,10,56,24.30
2017,05,25,10,57,23.10
2017,05,25,10,58,22.20
2017,05,25,10,59,20.90
2017,05,25,11,00,20.50
2017,05,25,11,01,21.60
2017,05,25,11,02,20.30
2017,05,25,11,03,20.80
2017,05,25,11,04,21.80
2017,05,25,11,05,21.00
2017,05,25,11,06,21.20
2017,05,25,11,07,21.10
2017,05,25,11,08,21.10
2017,05,25,11,09,21.40
2017,05,25,11,10,20.80
2017,05,25,11,11,20.10
2017,05,25,11,12,20.20
2017,05,25,11,13,20.90
2017,05,25,11,14,20.80
2017,05,25,11,15,19.90
2017,05,25,11,16,20.40
2017,05,25,11,17,20.30
2017,05,25,11,18,20.50
2017,05,25,11,19,19.90
2017,05,25,11,20,19.70
2017,05,25,11,21,19.50
2017,05,25,11,22,19.10
2017,05,25,11,23,20.10
2017,05,25,11,24,19.60
2017,05,25,11,25,20.30
2017,05,25,11,26,19.90
2017,05,25,11,27,19.50
2017,05,25,11,28,20.40
2017,05,25,11,29,20.20
2017,05,25,11,30,19.90
2017,05,25,11,31,20.10
2017,05,25,11,32,19.90
2017,05,25,11,33,19.50
2017,05,25,11,34,19.10
2017,05,25,11,35,19.50
2017,05,25,11,36,20.20
2017,05,25,11,37,20.80
2017,05,25,11,38,20.90
2017,05,25,11,39,21.60
2017,05,25,11,40,21.40
2017,05,25,11,41,20.80
2017,05,25,11,42,20.70
2017,05,25,11,43,20.60
2017,05,25,11,44,20.70
2017,05,25,11,45,20.50
2017,05,25,11,46,20.80
2017,05,25,11,47,19.80
2017,05,25,11,48,19.60
2017,05,25,11,49,19.10
2017,05,25,11,50,19.40
2017,05,25,11,51,19.80
2017,05,25,11,52,19.50
2017,05,25,11,53,19.80
2017,05,25,11,54,19.50
2017,05,25,11,55,20.00
2017,05,25,11,56,19.90
2017,05,25,11,57,18.30
2017,05,25,11,58,18.70
2017,05,25,11,59,19.00
2017,05,25,12,00,19.60
2017,05,25,12,01,19.40
2017,05,25,12,02,18.20
2017,05,25,12,03,18.80
2017,05,25,12,04,19.20
2017,05,25,12,05,19.50
2017,05,25,12,06,20.20
2017,05,25,12,07,19.70
2017,05,25,12,08,19.50
2017,05,25,12,09,19.80
2017,05,25,12,10,19.30
2017,05,25,12,11,20.50
2017,05,25,12,12,21.60
2017,05,25,12,13,22.00
2017,05,25,12,14,21.80
2017,05,25,12,15,22.20
2017,05,25,12,16,22.40
2017,05,25,12,17,22.50
2017,05,25,12,18,21.90
2017,05,25,12,19,22.60
2017,05,25,12,20,22.50
2017,05,25,12,21,23.10
2017,05,25,12,22,23.80
2017,05,25,12,23,23.60
2017,05,25,12,24,22.20
2017,05,25,12,25,22.40
2017,05,25,12,26,22.50
2017,05,25,12,27,21.50
2017,05,25,12,28,22.20
2017,05,25,12,29,22.20
2017,05,25,12,30,21.00
2017,05,25,12,31,22.00
2017,05,25,12,32,22.30
2017,05,25,12,33,22.20
2017,05,25,12,34,22.50
2017,05,25,12,35,21.40
2017,05,25,12,36,20.80
2017,05,25,12,37,20.80
2017,05,25,12,38,20.70
2017,05,25,12,39,20.20
2017,05,25,12,40,20.50
2017,05,25,12,41,19.90
2017,05,25,12,42,19.80
2017,05,25,12,43,20.60
2017,05,25,12,44,20.80
2017,05,25,12,45,20.20
2017,05,25,12,46,19.70
2017,05,25,12,47,19.50
2017,05,25,12,48,19.50
2017,05,25,12,49,19.60
2017,05,25,12,50,20.60
2017,05,25,12,51,20.40
2017,05,25,12,52,20.10
2017,05,25,12,53,20.10
2017,05,25,12,54,19.70
2017,05,25,12,55,19.90
2017,05,25,12,56,19.60
2017,05,25,12,57,20.10
2017,05,25,12,58,19.80
2017,05,25,12,59,19.10
2017,05,25,13,00,18.30
2017,05,25,13,01,18.80
2017,05,25,13,02,18.30
2017,05,25,13,03,18.20
2017,05,25,13,04,17.20
2017,05,25,13,05,16.50
2017,05,25,13,06,13.00
2017,05,25,13,07,6.40
2017,05,25,13,08,0.00
2017,05,25,13,09,0.50
2017,05,25,13,10,0.80
2017,05,25,13,11,9.10
2017,05,25,13,12,13.20
2017,05,25,13,13,12.00
2017,05,25,13,14,12.80
2017,05,25,13,15,11.30
2017,05,25,13,16,11.50
2017,05,25,13,17,11.00
2017,05,25,13,18,10.80
2017,05,25,13,19,13.20
2017,05,25,13,20,13.90
2017,05,25,13,21,13.80
2017,05,25,13,22,15.00
2017,05,25,13,23,14.60
2017,05,25,13,24,14.40
2017,05,25,13,25,14.10
2017,05,25,13,26,14.80
2017,05,25,13,27,15.30
2017,05,25,13,28,15.80
2017,05,25,13,29,15.30
2017,05,25,13,30,15.20
2017,05,25,13,31,15.30
2017,05,25,13,32,14.70
2017,05,25,13,33,13.70
2017,05,25,13,34,12.90
2017,05,25,13,35,12.90
2017,05,25,13,36,12.60
2017,05,25,13,37,13.10
2017,05,25,13,38,12.40
2017,05,25,13,39,14.20
2017,05,25,13,40,14.60
2017,05,25,13,41,14.90
2017,05,25,13,42,14.40
2017,05,25,13,43,13.60
2017,05,25,13,44,12.70
2017,05,25,13,45,11.80
2017,05,25,13,46,10.10
2017,05,25,13,47,9.90
2017,05,25,13,48,3.40
2017,05,25,13,49,0.00
2017,05,25,13,50,0.00
2017,05,25,13,51,0.00
2017,05,25,13,52,0.00
2017,05,25,13,53,3.50
2017,05,25,13,54,9.00
2017,05,25,13,55,10.70
2017,05,25,13,56,12.80
2017,05,25,13,57,13.60
2017,05,25,13,58,15.00
2017,05,25,13,59,14.80
2017,05,25,14,00,15.40
2017,05,25,14,01,15.40
2017,05,25,14,02,14.60
2017,05,25,14,03,15.10
2017,05,25,14,04,14.20
2017,05,25,14,05,14.70
2017,05,25,14,06,15.20
2017,05,25,14,07,16.00
2017,05,25,14,08,16.70
2017,05,25,14,09,13.10
2017,05,25,14,10,12.00
2017,05,25,14,11,10.80
2017,05,25,14,12,10.60
2017,05,25,14,13,11.50
2017,05,25,14,14,12.30
2017,05,25,14,15,12.20
2017,05,25,14,16,12.00
2017,05,25,14,17,12.20
2017,05,25,14,18,11.70
2017,05,25,14,19,11.10
2017,05,25,14,20,10.00
2017,05,25,14,21,8.90
2017,05,25,14,22,9.00
2017,05,25,14,23,4.20
2017,05,25,14,24,0.90
2017,05,25,14,25,10.50
2017,05,25,14,26,4.80
2017,05,25,14,27,4.70
2017,05,25,14,28,3.00
2017,05,25,14,29,0.00
2017,05,25,14,30,0.00
2017,05,25,14,31,0.00
2017,05,25,14,32,0.00
2017,05,25,14,33,0.00
2017,05,25,14,34,0.00
2017,05,25,14,35,0.00
2017,05,25,14,36,0.00
2017,05,25,14,37,0.00
2017,05,25,14,38,0.10
2017,05,25,14,39,0.00
2017,05,25,14,40,11.60
2017,05,25,14,41,11.90
2017,05,25,14,42,12.00
2017,05,25,14,43,12.60
2017,05,25,14,44,11.30
2017,05,25,14,45,12.80
2017,05,25,15,06,11.90
2017,05,25,15,07,10.00
2017,05,25,15,08,1.70
2017,05,25,15,09,0.00
2017,05,25,15,10,0.00
2017,05,25,15,11,0.00
2017,05,25,15,12,0.00
2017,05,25,15,13,0.00
2017,05,25,15,14,0.00
2017,05,25,15,15,0.00
2017,05,25,15,16,0.00
2017,05,25,15,17,0.00
2017,05,25,15,18,0.00
2017,05,25,15,19,0.00
2017,05,25,15,20,0.00
2017,05,25,15,21,0.00
2017,05,25,15,22,0.00
2017,05,25,15,23,0.00
2017,05,25,15,24,0.00
2017,05,25,15,25,0.00
2017,05,25,15,26,0.00
2017,05,25,15,27,12.40
2017,05,25,15,28,12.10
2017,05,25,15,29,12.20
2017,05,25,15,30,12.30
2017,05,25,15,31,12.00
2017,05,25,15,32,11.90
2017,05,25,15,33,11.80
2017,05,25,15,34,11.80
2017,05,25,15,35,12.00
2017,05,25,15,36,12.60
2017,05,25,15,37,13.00
2017,05,25,15,38,13.00
2017,05,25,15,39,12.40
2017,05,25,15,40,13.20
2017,05,25,15,41,13.50
2017,05,25,15,42,14.00
2017,05,25,15,43,14.10
2017,05,25,15,44,13.90
2017,05,25,15,45,13.60
2017,05,25,15,46,13.60
2017,05,25,15,47,13.50
2017,05,25,15,48,13.30
2017,05,25,15,49,13.00
2017,05,25,15,50,13.40
2017,05,25,15,51,13.80
2017,05,25,15,52,13.50
2017,05,25,15,53,12.30
2017,05,25,15,54,13.00
2017,05,25,15,55,13.00
2017,05,25,15,56,13.10
2017,05,25,15,57,13.40
2017,05,25,15,58,12.50
2017,05,25,15,59,12.10
2017,05,25,16,00,12.30
2017,05,25,16,01,13.00
2017,05,25,16,02,12.40
2017,05,25,16,03,11.30
2017,05,25,16,04,11.30
2017,05,25,16,05,12.50
2017,05,25,16,06,12.60
2017,05,25,16,07,12.30
2017,05,25,16,08,12.60
2017,05,25,16,09,12.30
2017,05,25,16,10,12.10
2017,05,25,16,11,12.40
2017,05,25,16,12,12.70
2017,05,25,16,13,13.00
2017,05,25,16,14,12.70
2017,05,25,16,15,12.30
2017,05,25,16,16,12.60
2017,05,25,16,17,12.90
2017,05,25,16,18,12.90
2017,05,25,16,19,12.90
2017,05,25,16,20,13.00
2017,05,25,16,21,13.60
2017,05,25,16,22,14.20
2017,05,25,16,23,12.80
2017,05,25,16,24,13.70
2017,05,25,16,25,11.60
2017,05,25,16,26,12.00
2017,05,25,16,27,15.00
2017,05,25,16,28,15.80
2017,05,25,16,29,15.90
2017,05,25,16,30,15.30
2017,05,25,16,31,15.60
2017,05,25,16,32,16.50
2017,05,25,16,33,15.70
2017,05,25,16,34,15.50
2017,05,25,16,35,15.40
2017,05,25,16,36,15.10
2017,05,25,16,37,15.10
2017,05,25,16,38,15.40
2017,05,25,16,39,15.10
2017,05,25,16,40,16.10
2017,05,25,16,41,15.60
2017,05,25,16,42,16.20
2017,05,25,16,43,17.20
2017,05,25,16,44,17.20
2017,05,25,16,45,17.50
2017,05,25,16,46,17.70
2017,05,25,16,47,17.50
2017,05,25,16,48,17.00
2017,05,25,16,49,17.30
2017,05,25,16,50,16.90
2017,05,25,16,51,16.70
2017,05,25,16,52,16.40
2017,05,25,16,53,16.00
2017,05,25,16,54,15.70
2017,05,25,16,55,14.10
2017,05,25,16,56,13.60
2017,05,25,16,57,14.30
2017,05,25,16,58,15.40
2017,05,25,16,59,14.60
2017,05,25,17,00,14.00
2017,05,25,17,01,13.20
2017,05,25,17,02,12.50
2017,05,25,17,03,12.00
2017,05,25,17,04,11.30
2017,05,25,17,05,11.70
2017,05,25,17,06,12.90
2017,05,25,17,07,12.00
2017,05,25,17,08,12.20
2017,05,25,17,09,13.90
2017,05,25,17,10,15.20
2017,05,25,17,11,14.30
2017,05,25,17,12,15.20
2017,05,25,17,13,17.70
2017,05,25,17,14,16.30
2017,05,25,17,15,16.10
2017,05,25,17,16,17.90
2017,05,25,17,17,19.30
2017,05,25,17,18,19.70
2017,05,25,17,19,20.40
2017,05,25,17,20,21.70
2017,05,25,17,21,18.70
2017,05,25,17,22,20.50
2017,05,25,17,23,23.80
2017,05,25,17,24,25.20
2017,05,25,17,25,24.80
2017,05,25,17,26,26.00
2017,05,25,17,27,27.30
2017,05,25,17,28,27.30
2017,05,25,17,29,26.80
2017,05,25,17,30,26.90
2017,05,25,17,31,27.10
2017,05,25,17,32,27.00
2017,05,25,17,33,27.30
2017,05,25,17,34,27.40
2017,05,25,17,35,27.10
2017,05,25,17,36,27.00
2017,05,25,17,37,26.90
2017,05,25,17,38,27.00
2017,05,25,17,39,26.90
2017,05,25,17,40,27.20
2017,05,25,17,41,26.60
2017,05,25,17,42,26.60
2017,05,25,17,43,27.40
2017,05,25,17,44,27.00
2017,05,25,17,45,26.80
2017,05,25,17,46,27.80
2017,05,25,17,47,27.90
2017,05,25,17,48,28.60
2017,05,25,17,49,27.90
2017,05,25,17,50,28.40
2017,05,25,17,51,28.20
2017,05,25,17,52,28.40
2017,05,25,17,53,29.00
2017,05,25,17,54,29.10
2017,05,25,17,55,29.50
2017,05,25,17,56,29.90
2017,05,25,17,57,30.10
2017,05,25,17,58,30.40
2017,05,25,17,59,31.30
2017,05,25,18,00,31.50
2017,05,25,18,01,31.90
2017,05,25,18,02,31.90
2017,05,25,18,03,32.00
2017,05,25,18,04,31.80
2017,05,25,18,05,33.20
2017,05,25,18,06,33.20